Date String (YYYY-MM-DD hh:mm:ss) UTC,Instrument flags,Ambient pressure (hPa),Sample flow (lpm),Bypass flow (lpm),Sample temperature (°C),Ambient temperature (°C),ASC tube jacket temperature (°C),LED temperature (°C),Box temperature (°C),Sample RH (%),Span deviation,Mass concentration (μg/m³),Mass concentration (μg/m³),Mass concentration (μg/m³)
DateTimeUTC,F1_M11,P_M11,Q1_M11,Q2_M11,T1_M11,T2_M11,T3_M11,T4_M11,T5_M11,U1_M11,ZSPAN_M11,X2_M11,X0_M11,X1_M11
2023-03-07 17:00:00,,0826.2,4.99,0.00,22.0,20.6,00.0,31.0,23.6,15.9,0000.0,0005.09,0007.42,0004.94
2023-03-07 17:01:00,,0826.2,4.98,0.00,22.1,21.9,00.0,30.9,23.9,15.9,0000.0,0005.08,0007.37,0004.94
2023-03-07 17:02:00,,0826.1,5.00,0.00,22.3,22.7,00.0,31.0,24.1,15.8,0000.0,0005.07,0007.35,0004.93
2023-03-07 17:03:00,,0826.2,4.97,0.00,22.3,22.3,00.0,31.0,24.1,15.8,0000.0,0005.07,0007.37,0004.93
2023-03-07 17:04:00,,0826.2,4.99,0.00,22.3,21.7,00.0,31.0,23.9,15.8,0000.0,0005.06,0007.35,0004.93
2023-03-07 17:05:00,,0826.2,4.99,0.00,22.3,21.3,00.0,31.0,23.9,15.8,0000.0,0005.05,0007.34,0004.92
2023-03-07 17:06:00,,0826.1,5.00,0.00,22.2,20.9,00.0,31.0,23.8,15.9,0000.0,0005.06,0007.36,0004.93
2023-03-07 17:07:00,,0826.2,5.00,0.00,22.2,20.6,00.0,31.0,23.6,15.9,0000.0,0005.06,0007.38,0004.92
2023-03-07 17:08:00,,0826.2,5.01,0.00,22.1,20.5,00.0,31.0,23.6,16.0,0000.0,0005.05,0007.36,0004.91
2023-03-07 17:09:00,,0826.2,5.00,0.00,22.1,20.4,00.0,31.0,23.6,16.1,0000.0,0005.05,0007.34,0004.90
2023-03-07 17:10:00,,0826.1,5.00,0.00,22.1,20.2,00.0,30.9,23.6,16.1,0000.0,0005.04,0007.23,0004.91
2023-03-07 17:11:00,,0826.1,4.99,0.00,22.0,20.1,00.0,30.9,23.6,16.1,0000.0,0005.05,0007.26,0004.92
2023-03-07 17:12:00,,0826.0,4.99,0.00,22.0,20.0,00.0,30.9,23.5,16.2,0000.0,0005.07,0007.35,0004.91
2023-03-07 17:13:00,,0826.1,5.01,0.00,22.0,20.4,00.0,30.9,23.6,16.2,0000.0,0005.07,0007.36,0004.91
2023-03-07 17:14:00,,0826.2,4.99,0.00,22.1,21.6,00.0,30.9,23.9,16.1,0000.0,0005.07,0007.37,0004.91
2023-03-07 17:15:00,,0826.2,5.01,0.00,22.2,22.7,00.0,30.9,24.2,16.0,0000.0,0005.09,0007.41,0004.91
2023-03-07 17:16:00,,0826.2,4.99,0.00,22.3,22.5,00.0,30.9,24.1,15.9,0000.0,0005.09,0007.50,0004.91
2023-03-07 17:17:00,,0826.2,5.03,0.00,22.3,21.9,00.0,30.9,24.0,15.8,0000.0,0005.07,0007.56,0004.91
2023-03-07 17:18:00,,0826.2,4.98,0.00,22.3,21.4,00.0,31.0,23.9,15.8,0000.0,0005.08,0007.56,0004.92
2023-03-07 17:19:00,,0826.2,5.00,0.00,22.2,21.1,00.0,31.0,23.8,15.8,0000.0,0005.11,0007.58,0004.95
2023-03-07 17:20:00,,0826.2,5.00,0.00,22.2,20.8,00.0,31.0,23.8,15.8,0000.0,0005.13,0007.69,0004.96
2023-03-07 17:21:00,,0826.2,5.00,0.00,22.2,20.6,00.0,31.0,23.7,16.0,0000.0,0005.15,0008.24,0004.97
2023-03-07 17:22:00,,0826.2,5.01,0.00,22.1,20.4,00.0,30.9,23.7,16.0,0000.0,0005.15,0008.22,0004.98
2023-03-07 17:23:00,,0826.2,5.01,0.00,22.1,20.2,00.0,30.9,23.6,16.0,0000.0,0005.13,0008.16,0004.98
2023-03-07 17:24:00,,0826.1,4.99,0.00,22.0,20.1,00.0,30.9,23.6,16.0,0000.0,0005.12,0008.09,0004.98
2023-03-07 17:25:00,,0826.1,4.99,0.00,22.0,20.0,00.0,30.9,23.5,16.1,0000.0,0005.13,0008.53,0004.99
2023-03-07 17:26:00,,0826.1,5.00,0.00,22.0,19.9,00.0,30.9,23.4,16.0,0000.0,0005.13,0008.69,0005.00
2023-03-07 17:27:00,,0826.2,5.00,0.00,21.9,19.9,00.0,30.8,23.4,16.1,0000.0,0005.14,0008.64,0005.00
2023-03-07 17:28:00,,0826.1,4.99,0.00,22.0,21.0,00.0,30.8,23.7,16.1,0000.0,0005.16,0008.56,0005.01
2023-03-07 17:29:00,,0826.2,4.98,0.00,22.1,22.3,00.0,30.8,24.0,16.0,0000.0,0005.14,0008.54,0005.00
2023-03-07 17:30:00,,0826.2,5.01,0.00,22.2,22.7,00.0,30.8,24.1,16.0,0000.0,0005.13,0009.07,0004.98
2023-03-07 17:31:00,,0826.2,5.00,0.00,22.2,22.2,00.0,30.9,24.0,16.0,0000.0,0005.10,0009.10,0004.96
2023-03-07 17:32:00,,0826.2,4.99,0.00,22.2,21.7,00.0,30.9,23.9,16.0,0000.0,0005.07,0008.52,0004.95
2023-03-07 17:33:00,,0826.2,4.99,0.00,22.2,21.2,00.0,30.9,23.8,16.1,0000.0,0005.06,0008.48,0004.94
2023-03-07 17:34:00,,0826.2,5.00,0.00,22.2,20.9,00.0,30.9,23.7,16.1,0000.0,0005.06,0008.49,0004.94
2023-03-07 17:35:00,,0826.2,5.00,0.00,22.1,20.7,00.0,30.9,23.7,16.1,0000.0,0005.09,0008.70,0004.95
2023-03-07 17:36:00,,0826.2,5.01,0.00,22.1,20.6,00.0,30.9,23.6,16.1,0000.0,0005.11,0008.69,0004.96
2023-03-07 17:37:00,,0826.2,5.01,0.00,22.1,20.4,00.0,30.9,23.7,16.2,0000.0,0005.10,0008.26,0004.96
2023-03-07 17:38:00,,0826.2,5.00,0.00,22.1,20.4,00.0,30.9,23.6,16.2,0000.0,0005.10,0008.24,0004.96
2023-03-07 17:39:00,,0826.2,5.00,0.00,22.0,20.3,00.0,30.9,23.6,16.3,0000.0,0005.12,0008.29,0004.97
2023-03-07 17:40:00,,0826.2,4.99,0.00,22.0,20.2,00.0,30.8,23.6,16.2,0000.0,0005.15,0008.37,0004.99
2023-03-07 17:41:00,,0826.2,4.99,0.00,22.0,20.1,00.0,30.8,23.5,16.2,0000.0,0005.17,0008.07,0005.00
2023-03-07 17:42:00,,0826.2,5.00,0.00,22.0,20.7,00.0,30.8,23.7,16.2,0000.0,0005.18,0007.82,0005.02
2023-03-07 17:43:00,,0826.1,4.99,0.00,22.1,22.0,00.0,30.8,24.0,16.1,0000.0,0005.19,0007.80,0005.03
2023-03-07 17:44:00,,0826.2,5.03,0.00,22.2,23.0,00.0,30.8,24.2,16.0,0000.0,0005.21,0007.83,0005.05
2023-03-07 17:45:00,,0826.1,5.02,0.00,22.3,22.7,00.0,30.9,24.2,15.9,0000.0,0005.23,0007.86,0005.06
2023-03-07 17:46:00,,0826.2,5.00,0.00,22.3,22.1,00.0,30.9,24.1,15.9,0000.0,0005.22,0007.67,0005.07
2023-03-07 17:47:00,,0826.2,5.02,0.00,22.3,21.6,00.0,30.9,24.0,16.0,0000.0,0005.22,0007.49,0005.09
2023-03-07 17:48:00,,0826.2,5.00,0.00,22.3,21.3,00.0,30.9,23.9,16.0,0000.0,0005.25,0007.53,0005.11
2023-03-07 17:49:00,,0826.2,5.00,0.00,22.2,21.1,00.0,30.9,23.9,16.0,0000.0,0005.28,0007.58,0005.13
2023-03-07 17:50:00,,0826.1,5.00,0.00,22.2,20.9,00.0,30.9,23.9,16.1,0000.0,0005.28,0007.55,0005.14
2023-03-07 17:51:00,,0826.2,5.00,0.00,22.2,20.8,00.0,30.9,23.9,16.1,0000.0,0005.25,0007.48,0005.13
2023-03-07 17:52:00,,0826.2,4.99,0.00,22.2,20.6,00.0,30.9,23.8,16.1,0000.0,0005.25,0007.42,0005.13
2023-03-07 17:53:00,,0826.2,4.99,0.00,22.2,20.5,00.0,30.9,23.8,16.1,0000.0,0005.25,0007.42,0005.13
2023-03-07 17:54:00,,0826.2,4.99,0.00,22.1,20.4,00.0,30.9,23.7,16.0,0000.0,0005.26,0007.43,0005.14
2023-03-07 17:55:00,,0826.2,4.99,0.00,22.1,20.2,00.0,30.9,23.6,16.1,0000.0,0005.26,0007.46,0005.14
2023-03-07 17:56:00,,0826.2,5.00,0.00,22.1,20.2,00.0,30.9,23.6,16.1,0000.0,0005.27,0007.48,0005.16
2023-03-07 17:57:00,,0826.2,5.01,0.00,22.0,20.0,00.0,30.9,23.5,16.1,0000.0,0005.28,0007.51,0005.16
2023-03-07 17:58:00,,0826.2,5.00,0.00,22.0,20.1,00.0,30.9,23.6,16.1,0000.0,0005.28,0007.55,0005.16
2023-03-07 17:59:00,,0826.2,4.98,0.00,22.1,21.3,00.0,30.8,23.8,16.1,0000.0,0005.28,0007.55,0005.15
